Regional Weather Roundup
Issued by NWS

Home | Current Version | Previous Version | Text Only | Print | Product List | Glossary Off
Versions: 1 2 3 4 5 6 7 8 9 10 11 12 13 14 15 16 17 18 19 20 21 22 23 24 25 26 27 28 29 30 31 32 33 34 35 36 37 38 39 40 41 42 43 44 45 46 47 48 49 50

000
ASUS45 KSLC 010010
RWRUT
UTAH REGIONAL WEATHER ROUNDUP
NATIONAL WEATHER SERVICE SALT LAKE CITY UT
600 PM MDT FRI JUL 31 2015

UTZ001>011-023>025-010100-

NORTHERN UTAH

CITY           SKY/WX    TMP DP  RH WIND       PRES   REMARKS
BRIGHAM CITY   SUNNY     93  13   5 CALM      30.13F
HILL AFB       SUNNY     90  26  10 VRB1      30.17F
LOGAN          SUNNY     93  21   7 E5        30.14F
OGDEN          SUNNY     91  23   8 CALM      30.14F
PROVO AIRPORT  MOSUNNY   90  39  17 NW12      30.14F
SALT LAKE CITY MOSUNNY   93  24   8 N6        30.12F
VERNAL         SUNNY     91  15   6 SE6       30.15F
WENDOVER       SUNNY     93  28  10 SE8       30.12F
HEBER CITY     SUNNY     90  30  12 SW8       30.20F
WEST JORDAN    SUNNY     90  34  13 NW9       30.16F

$$

UTZ012>022-026-027-010100-

SOUTHERN/CENTRAL UTAH

CITY           SKY/WX    TMP DP  RH WIND       PRES   REMARKS
BLANDING       PTSUNNY   80  51  36 E18G26    30.32R
BRYCE CANYON   CLOUDY    76  38  25 S6        30.39F
CEDAR CITY     PTSUNNY   90  34  13 CALM      30.20F
DELTA          SUNNY     95  19   6 NW13      30.12F
HANKSVILLE     MOSUNNY   97  34  11 SE8       30.08F HX  91
MILFORD        SUNNY     97  35  11 N15G23    30.12F HX  92
MOAB/CYNLANDS  SUNNY     96  32  10 NW7       30.07F HX  90
PRICE          SUNNY     92  18   6 VRB5      30.19F
ST GEORGE      CLEAR     91  55  29 SE26G33   30.03R

$$

REGIONAL REPORTS     COLORADO/ARIZONA

CITY           SKY/WX    TMP DP  RH WIND       PRES   REMARKS
CRAIG, CO      SUNNY     91  25   9 NW13      30.22F
GRAND JUNCTION MOSUNNY   91  25   9 W6        30.10F
RIFLE          SUNNY     94  26   9 SE5       30.14F
MONTROSE       CLOUDY    82  44  26 S5        30.22F
CORTEZ         LGT RAIN  66  60  81 E8        30.31F
PAGE, AZ       MOSUNNY   96  39  13 VRB3      30.08F HX  91
GRAND CANYON   CLOUDY    69  53  56 W10       30.35R
KINGMAN        MOSUNNY   97  45  16 SW14      30.05F HX  93
FLAGSTAFF      CLOUDY    67  61  81 W3        30.36F

$$

REGIONAL REPORTS    NEVADA/IDAHO/WYOMING

CITY           SKY/WX    TMP DP  RH WIND       PRES   REMARKS
LAS VEGAS, NV  MOSUNNY  104  52  17 N15G22    29.87F HX 101
ELY            CLOUDY    86  24  10 SE8       30.27F
ELKO           SUNNY     96  17   5 N13G21    30.17F
POCATELLO, ID  SUNNY     91  20   7 VRB3      30.18F
BURLEY         SUNNY     91  23   8 CALM      30.13F
EVANSTON, WY   SUNNY     83  24  11 N7G22     30.34F
ROCK SPRINGS   SUNNY     84  18   8 W8        30.28F
KEMMERER       SUNNY    N/A N/A N/A W8        30.36F

$$


USA.gov is the U.S. government's official web portal to all federal, state and local government web resources and services.